This demonstration page uses our WeatherBlox Daily Observations layout. Learn more.

Left ArrowRight Arrow

39.92423, -83.80882

Hourly Observations for August 15, 2019

Temp ( °F °C ) Dew Point ( °F °C ) Humidity (%) Winds ( mph kmh ) Pressure ( in mb ) Visibility ( mi km ) Precip ( " mm )
12:56 am 00:56 Clear 66 18.9 66 18.9 100 100 SSE 7 11 29.95 1014 10 16.0934 N/A
1:56 am 01:56 Mostly Cloudy 68 20 68 20 100 100 S 5 7 29.94 1014 10 16.0934 N/A
2:56 am 02:56 Mostly Cloudy 67 19.4 67 19.4 100 100 N N/A 29.93 1014 10 16.0934 N/A
3:56 am 03:56 Clear with Mist and Fog 65 18.3 65 18.3 100 100 N N/A 29.92 1013 4 6.43736 N/A
4:56 am 04:56 Clear with Mist and Fog 64 17.8 64 17.8 100 100 N N/A 29.91 1013 6 9.65604 N/A
5:53 am 05:53 Clear with Mist and Fog 64 18 64 18 100 100 N N/A 29.91 1013 2.5 4.02335 N/A
5:56 am 05:56 Clear with Mist and Fog 64 17.8 64 17.8 100 100 N N/A 29.91 1013 2.5 4.02335 N/A
6:08 am 06:08 Clear with Mist and Fog 63 17 63 17 100 100 N N/A 29.91 1013 1 1.60934 N/A
6:10 am 06:10 Mostly Cloudy with Fog 63 17 63 17 100 100 ESE 3 6 29.91 1013 0.5 0.80467 N/A
6:22 am 06:22 Mostly Cloudy with Mist and Fog 63 17 63 17 100 100 N N/A 29.92 1013 1 1.60934 N/A
6:26 am 06:26 Mostly Clear with Mist and Fog 63 17 63 17 100 100 N N/A 29.92 1013 1 1.60934 N/A
6:29 am 06:29 Mostly Clear with Fog 61 16 61 16 100 100 N N/A 29.93 1013 0.5 0.80467 N/A
6:37 am 06:37 Mostly Clear with Fog 63 17 63 17 100 100 SE 3 6 29.92 1013 0.25 0.402335 N/A
6:44 am 06:44 Mostly Cloudy with Fog 63 17 63 17 100 100 N N/A 29.91 1013 0.25 0.402335 N/A
6:56 am 06:56 Mostly Cloudy with Fog 61 16.1 61 16.1 100 100 N N/A 29.92 1013 0.25 0.402335 N/A
7:31 am 07:31 Mostly Cloudy with Mist and Fog 63 17 63 17 100 100 N N/A 29.93 1014 0.75 1.207005 N/A
7:33 am 07:33 Mostly Cloudy with Mist and Fog 63 17 63 17 100 100 N N/A 29.93 1014 1.5 2.41401 N/A
7:35 am 07:35 Partly Cloudy with Mist and Fog 63 17 63 17 100 100 N N/A 29.93 1014 2 3.21868 N/A
7:47 am 07:47 Partly Cloudy with Mist and Fog 64 18 64 18 100 100 N N/A 29.93 1014 3 4.82802 N/A
7:56 am 07:56 Sunny with Mist and Fog 65 18.3 65 18.3 100 100 N N/A 29.94 1014 4 6.43736 N/A
8:19 am 08:19 Partly Cloudy with Mist and Fog 66 19 66 19 100 100 SW 3 6 29.94 1014 5 8.0467 N/A
8:25 am 08:25 Mostly Cloudy with Mist and Fog 66 19 66 19 100 100 WSW 5 7 29.94 1014 5 8.0467 N/A
8:56 am 08:56 Cloudy with Mist and Fog 68 20 68 20 100 100 WSW 7 11 29.96 1014 2.5 4.02335 N/A
9:10 am 09:10 Mostly Cloudy with Mist and Fog 70 21 70 21 100 100 W 6 9 29.94 1014 4 6.43736 N/A
9:21 am 09:21 Partly Cloudy 72 22 72 22 100 100 W 6 9 29.93 1014 7 11.26538 N/A
9:56 am 09:56 Mostly Sunny 74 23.3 69 20.6 85 85 WNW 9 15 29.95 1014 10 16.0934 N/A
10:56 am 10:56 Sunny 77 25 68 20 74 74 WNW 8 13 29.95 1014 10 16.0934 N/A
11:56 am 11:56 Partly Cloudy 78 25.6 67 19.4 69 69 W 7 11 29.96 1014 10 16.0934 N/A
12:56 pm 12:56 Mostly Sunny 81 27.2 66 18.9 61 61 W 8 13 29.96 1015 10 16.0934 N/A
1:56 pm 13:56 Mostly Cloudy 81 27.2 65 18.3 58 58 W 8 13 29.94 1014 10 16.0934 N/A
2:56 pm 14:56 Partly Cloudy 83 28.3 64 17.8 53 53 WNW 8 13 29.93 1014 10 16.0934 N/A
3:56 pm 15:56 Partly Cloudy 82 27.8 63 17.2 53 53 W 9 15 29.93 1014 10 16.0934 N/A
4:56 pm 16:56 Partly Cloudy 82 27.8 64 17.8 55 55 W 8 13 29.93 1014 10 16.0934 N/A
5:56 pm 17:56 Mostly Sunny 82 27.8 63 17.2 53 53 WNW 10 17 29.93 1014 10 16.0934 N/A
6:56 pm 18:56 Partly Cloudy 81 27.2 64 17.8 57 57 WNW 9 15 29.93 1014 10 16.0934 N/A
7:56 pm 19:56 Mostly Sunny 77 25 65 18.3 66 66 WNW 8 13 29.94 1014 10 16.0934 N/A
8:56 pm 20:56 Clear 72 22.2 66 18.9 82 82 NW 5 7 29.94 1014 10 16.0934 N/A
9:56 pm 21:56 Clear 70 21.1 65 18.3 84 84 WNW 7 11 29.95 1014 10 16.0934 N/A
10:56 pm 22:56 Clear 68 20 65 18.3 90 90 N N/A 29.97 1015 10 16.0934 N/A
11:56 pm 23:56 Clear 66 18.9 66 18.9 100 100 W 3 6 29.98 1015 10 16.0934 N/A

Powered by AerisWeather